Weather History for Lawrenceville, IL

Change the Weather History Date:

Friday, February 24, 2012

  Actual Average Record
Temperature  
Mean Temperature 41 °F 38 °F  
Max Temperature 50 °F 47 °F 63 °F (2001)
Min Temperature 31 °F 29 °F 10 °F (1993)
Degree Days  
Heating Degree Days 24 27  
Month to date heating degree days 624 722  
Since 1 July heating degree days 3000 3573  
Cooling Degree Days 0 0  
Month to date cooling degree days 0 0  
Year to date cooling degree days 0 0  
Moisture  
Dew Point 28 °F    
Average Humidity 64    
Maximum Humidity 77    
Minimum Humidity 50    
Precipitation  
Precipitation T in 0.06 in 1.00 in (2011)
Month to date precipitation 0.91 1.77  
Year to date precipitation 4.30 4.15  
Sea Level Pressure  
Sea Level Pressure 29.82 in    
Wind  
Wind Speed 18 mph (West)    
Max Wind Speed 35 mph    
Max Gust Speed 45 mph    
Visibility 10 miles    
Events Rain    
T = Trace of Precipitation, MM = Missing Value Source: NWS Daily Summary

Daily Weather History Graph

Daily Weather History Graph

Search for Another Location

Airport:

Trip Planner

Search our weather history database for the weather conditions in past years. The results will help you decide how hot, cold, wet, or windy it might be!

Date:

Astronomy

Feb. 24, 2012 Rise Set
Actual Time 6:30 AM CST 5:37 PM CST
Civil Twilight 6:03 AM CST 6:04 PM CST
Nautical Twilight 5:32 AM CST 6:35 PM CST
Astronomical Twilight 5:01 AM CST 7:06 PM CST
Moon 7:27 AM CST (2/24) 8:38 PM CST (2/24)
Length of Visible Light 12h 00m
Length of Day
11h 07m
Waxing Crescent, 8% of the Moon is Illuminated
Feb 24
Waxing Crescent
Feb 29
First Quarter
Mar 8
Full
Mar 14
Last Quarter
Mar 22
New

Hourly Weather History & Observations

Time (CST) Temp. Windchill Dew Point Humidity Pressure Visibility Wind Dir Wind Speed Gust Speed Precip Events Conditions
12:53 AM 48.0 °F - 41.0 °F 77% 29.46 in 10.0 mi WNW 18.4 mph 25.3 mph N/A   Clear
1:53 AM 46.9 °F - 39.9 °F 77% 29.48 in 10.0 mi West 11.5 mph - N/A   Clear
2:53 AM 46.0 °F 43.1 °F 39.9 °F 79% 29.48 in 9.0 mi WSW 5.8 mph - N/A   Scattered Clouds
3:53 AM 48.0 °F - 37.0 °F 66% 29.51 in 10.0 mi West 20.7 mph 25.3 mph N/A   Mostly Cloudy
4:53 AM 43.0 °F 34.2 °F 28.0 °F 56% 29.57 in 10.0 mi West 20.7 mph 39.1 mph N/A   Clear
5:53 AM 42.1 °F 31.9 °F 27.0 °F 55% 29.60 in 10.0 mi WSW 26.5 mph 38.0 mph N/A   Overcast
6:53 AM 42.1 °F 32.6 °F 27.0 °F 55% 29.62 in 10.0 mi West 23.0 mph 31.1 mph N/A   Overcast
7:53 AM 41.0 °F 30.7 °F 28.0 °F 60% 29.66 in 10.0 mi West 25.3 mph 36.8 mph N/A   Overcast
8:44 AM 39.2 °F 27.8 °F 30.2 °F 70% 29.70 in 8.0 mi West 27.6 mph 41.4 mph 0.00 in Rain Light Rain
8:53 AM 39.0 °F 28.5 °F 30.9 °F 73% 29.72 in 10.0 mi West 23.0 mph 40.3 mph 0.00 in Rain Light Rain
9:07 AM 39.2 °F 29.3 °F 30.2 °F 70% 29.73 in 10.0 mi West 20.7 mph 38.0 mph 0.00 in   Overcast
9:53 AM 39.9 °F 29.2 °F 30.0 °F 68% 29.78 in 10.0 mi WNW 25.3 mph 38.0 mph 0.00 in   Overcast
10:06 AM 39.2 °F 28.0 °F 28.4 °F 65% 29.78 in 10.0 mi WNW 26.5 mph 36.8 mph N/A   Overcast
10:53 AM 39.9 °F 28.6 °F 28.9 °F 65% 29.83 in 10.0 mi WNW 28.8 mph 38.0 mph N/A   Overcast
11:07 AM 41.0 °F 30.5 °F 28.4 °F 61% 29.83 in 10.0 mi WNW 26.5 mph 41.4 mph N/A   Overcast
11:24 AM 39.2 °F 28.5 °F 28.4 °F 65% 29.85 in 10.0 mi WNW 24.2 mph 32.2 mph N/A   Overcast
11:53 AM 42.1 °F 32.6 °F 30.0 °F 62% 29.86 in 10.0 mi WNW 23.0 mph 31.1 mph N/A   Overcast
12:53 PM 41.0 °F 30.7 °F 26.1 °F 55% 29.88 in 8.0 mi WNW 25.3 mph 33.4 mph N/A   Overcast
1:53 PM 41.0 °F 31.9 °F 28.0 °F 60% 29.91 in 8.0 mi West 19.6 mph 25.3 mph 0.00 in   Overcast
2:53 PM 41.0 °F 30.9 °F 27.0 °F 57% 29.95 in 8.0 mi WNW 24.2 mph 29.9 mph 0.00 in   Overcast
3:53 PM 41.0 °F 31.6 °F 27.0 °F 57% 29.99 in 10.0 mi WNW 20.7 mph 31.1 mph 0.00 in   Overcast
4:53 PM 39.9 °F 31.1 °F 23.0 °F 51% 30.00 in 10.0 mi WNW 17.3 mph - N/A   Clear
5:53 PM 39.9 °F 32.1 °F 23.0 °F 51% 30.03 in 10.0 mi West 13.8 mph - N/A   Mostly Cloudy
6:53 PM 37.9 °F 28.2 °F 23.0 °F 55% 30.06 in 10.0 mi WNW 18.4 mph - N/A   Partly Cloudy
7:53 PM 35.1 °F 26.4 °F 21.0 °F 57% 30.08 in 10.0 mi WNW 12.7 mph - N/A   Clear
8:53 PM 33.1 °F 27.7 °F 21.0 °F 61% 30.09 in 10.0 mi West 5.8 mph - N/A   Clear
9:53 PM 32.0 °F 24.8 °F 21.0 °F 64% 30.11 in 10.0 mi WSW 8.1 mph - N/A   Clear
10:53 PM 33.1 °F 23.9 °F 21.0 °F 61% 30.11 in 10.0 mi WSW 12.7 mph - N/A   Clear
11:53 PM 34.0 °F 26.0 °F 21.0 °F 59% 30.12 in 10.0 mi West 10.4 mph - N/A   Overcast